Ft Riley, KS

9:16 PM CDT on April 24, 2017 (GMT -0500)
Marshall Army Air Field

Weather History for KFRI - October, 2012

Change the Weather History Date:

Sunday, October 28, 2012

  Actual Average (KMHK) Record (KMHK)
Temperature  
Mean Temperature 40 °F -  
Max Temperature 56 °F 60 °F 85 °F (2016)
Min Temperature 25 °F 38 °F 21 °F (2008)
Degree Days  
Heating Degree Days 25    
Moisture  
Dew Point 27 °F    
Average Humidity 61    
Maximum Humidity 99    
Minimum Humidity 34    
Precipitation  
Precipitation 0.00 in - - ()
Sea Level Pressure  
Sea Level Pressure 30.29 in    
Wind  
Wind Speed 5 mph (ESE)    
Max Wind Speed 14 mph    
Max Gust Speed -    
Visibility 10 miles    
Events      
Averages and records for this station are not official NWS values.
T = Trace of Precipitation, MM = Missing Value Source: NWS Daily Summary

Daily Weather History Graph

Daily Weather History Graph

Search for Another Location

Airport or City:

Trip Planner

Search our weather history database for the weather conditions in past years. The results will help you decide how hot, cold, wet, or windy it might be!

Date:

Astronomy

Oct. 28, 2012 Rise Set
Actual Time 7:50 AM CDT 6:30 PM CDT
Civil Twilight 7:23 AM CDT 6:57 PM CDT
Nautical Twilight 6:51 AM CDT 7:29 PM CDT
Astronomical Twilight 6:20 AM CDT 8:00 PM CDT
Moon 5:48 PM CDT (10/28) 6:45 AM CDT (10/28)
Length of Visible Light 11h 34m
Length of Day
10h 39m
Waxing Gibbous, 99% of the Moon is Illuminated
Oct 28
Waxing Gibbous
Oct 29
Full
Nov 6
Last Quarter
Nov 13
New
Nov 20
First Quarter

Hourly Weather History & Observations

Time (CDT) Temp. Windchill Dew Point Humidity Pressure Visibility Wind Dir Wind Speed Gust Speed Precip Events Conditions
12:55 AM 33.6 °F 30.6 °F 27.0 °F 77% 30.31 in 10.0 mi North 3.5 mph - N/A   Clear
1:55 AM 32.7 °F 29.6 °F 26.4 °F 78% 30.31 in 10.0 mi NE 3.5 mph - N/A   Clear
2:55 AM 28.4 °F - 26.6 °F 93% 30.32 in 10.0 mi Calm Calm - N/A   Clear
3:55 AM 28.9 °F 25.2 °F 26.6 °F 91% 30.32 in 10.0 mi North 3.5 mph - N/A   Clear
4:55 AM 26.4 °F 20.9 °F 26.2 °F 99% 30.32 in 10.0 mi North 4.6 mph - N/A   Clear
5:55 AM 26.1 °F - 24.6 °F 94% 30.33 in 10.0 mi Calm Calm - N/A   Clear
6:55 AM 25.9 °F 21.7 °F 25.3 °F 98% 30.33 in 10.0 mi NNE 3.5 mph - N/A   Clear
7:55 AM 25.9 °F 21.7 °F 24.3 °F 94% 30.34 in 10.0 mi NE 3.5 mph - N/A   Clear
8:55 AM 28.2 °F - 27.5 °F 97% 30.37 in 10.0 mi Calm Calm - N/A   Clear
9:55 AM 37.0 °F - 31.6 °F 81% 30.37 in 10.0 mi Calm Calm - N/A   Clear
10:55 AM 46.0 °F 41.4 °F 29.1 °F 52% 30.34 in 10.0 mi SSE 9.2 mph - N/A   Clear
11:55 AM 49.5 °F - 27.9 °F 43% 30.33 in 10.0 mi SE 5.8 mph - N/A   Clear
12:55 PM 51.6 °F - 28.0 °F 40% 30.31 in 10.0 mi East 4.6 mph - N/A   Clear
1:55 PM 54.5 °F - 28.4 °F 37% 30.28 in 10.0 mi SE 5.8 mph - N/A   Clear
2:55 PM 55.2 °F - 28.8 °F 36% 30.25 in 10.0 mi SSE 9.2 mph - N/A   Clear
3:55 PM 55.9 °F - 27.9 °F 34% 30.24 in 10.0 mi South 6.9 mph - N/A   Clear
4:55 PM 54.5 °F - 28.0 °F 36% 30.24 in 10.0 mi SSE 8.1 mph - N/A   Overcast
5:55 PM 53.1 °F - 28.2 °F 38% 30.23 in 10.0 mi SE 9.2 mph - N/A   Overcast
6:55 PM 51.6 °F - 28.2 °F 41% 30.24 in 10.0 mi SE 8.1 mph - N/A   Overcast
7:55 PM 50.7 °F - 28.4 °F 42% 30.24 in 10.0 mi ESE 8.1 mph - N/A   Overcast
8:55 PM 49.8 °F - 28.0 °F 43% 30.25 in 10.0 mi SE 9.2 mph - N/A   Overcast
9:55 PM 48.7 °F - 26.8 °F 43% 30.25 in 10.0 mi SE 10.4 mph - N/A   Overcast
10:55 PM 48.6 °F - 26.6 °F 42% 30.24 in 10.0 mi SE 13.8 mph - N/A   Overcast
11:55 PM 48.4 °F - 27.1 °F 44% 30.24 in 10.0 mi SSE 8.1 mph - N/A   Overcast